EW5545 Weather Reports


Display with metric or nautical units.
time (UTC)temp
F
wind
direction
speed
MPH
gust
MPH
rain 1hr
in
rain 24hr
in
rain mn
in
humidity
%
barometer
mb
20260831112015 90 48 5.0 12.0 0.00 0.00 0.00 60 1013.9
20260831111509 90 46 3.0 8.0 0.00 0.00 0.00 57 1013.9
20260831111015 89 33 2.0 9.0 0.00 0.00 0.00 59 1014.0
20260831110508 89 54 4.0 9.0 0.00 0.00 0.00 60 1014.0
20260831110016 90 52 3.0 9.0 0.00 0.00 0.00 59 1014.1
20260831105512 89 41 1.0 5.0 0.00 0.00 0.00 60 1014.1
20260831105007 89 41 3.0 8.0 0.00 0.00 0.00 60 1014.1
20260831104013 89 37 5.0 10.0 0.00 0.00 0.00 60 1014.1
20260831103512 89 57 4.0 8.0 0.00 0.00 0.00 61 1014.1
20260831103016 89 38 2.0 8.0 0.00 0.00 0.00 61 1014.1
20260831102512 89 46 2.0 8.0 0.00 0.00 0.00 62 1014.1
20260831102015 88 39 6.0 10.0 0.00 0.00 0.00 63 1014.1
20260831101013 87 53 5.0 12.0 0.00 0.00 0.00 64 1014.1
20260831100512 88 46 5.0 10.0 0.00 0.00 0.00 62 1014.0
20260831100015 88 47 5.0 9.0 0.00 0.00 0.00 63 1014.1
20260831095509 87 44 3.0 9.0 0.00 0.00 0.00 64 1014.1
20260831095009 87 41 4.0 8.0 0.00 0.00 0.00 63 1014.1
20260831094007 87 48 3.0 8.0 0.00 0.00 0.00 64 1014.1
20260831093015 87 68 2.0 5.0 0.00 0.00 0.00 64 1014.0
20260831092507 87 33 5.0 14.0 0.00 0.00 0.00 65 1014.1
20260831092013 87 44 5.0 12.0 0.00 0.00 0.00 65 1014.1
20260831091509 86 46 5.0 12.0 0.00 0.00 0.00 64 1014.1
20260831091014 87 38 5.0 12.0 0.00 0.00 0.00 64 1014.0
20260831090512 86 50 4.0 10.0 0.00 0.00 0.00 65 1014.1
20260831084513 85 58 5.0 8.0 0.00 0.00 0.00 66 1014.0
20260831083007 85 32 2.0 6.0 0.00 0.00 0.00 68 1013.9
20260831082506 85 45 3.0 6.0 0.00 0.00 0.00 68 1013.9
20260831082012 85 47 2.0 7.0 0.00 0.00 0.00 69 1013.8
20260831081016 85 41 5.0 10.0 0.00 0.00 0.00 68 1013.8
20260831080520 84 45 3.0 6.0 0.00 0.00 0.00 70 1013.9
20260831080014 84 31 5.0 9.0 0.00 0.00 0.00 70 1013.8
20260831075509 84 52 4.0 10.0 0.00 0.00 0.00 72 1013.8
20260831075013 83 52 4.0 10.0 0.00 0.00 0.00 72 1013.8
20260831074513 83 49 3.0 8.0 0.00 0.00 0.00 73 1013.8
20260831074009 83 42 3.0 10.0 0.00 0.00 0.00 74 1013.8
20260831073512 83 35 5.0 10.0 0.00 0.00 0.00 74 1013.8
20260831073016 83 345 3.0 9.0 0.00 0.00 0.00 74 1013.7
20260831072015 83 38 2.0 8.0 0.00 0.00 0.00 76 1013.6
20260831071508 82 46 4.0 10.0 0.00 0.00 0.00 76 1013.6
20260831071008 82 36 3.0 8.0 0.00 0.00 0.00 76 1013.6
20260831070507 82 49 3.0 6.0 0.00 0.00 0.00 77 1013.6
20260831065509 82 290 2.0 7.0 0.00 0.00 0.00 77 1013.6
20260831065011 82 280 2.0 5.0 0.00 0.00 0.00 77 1013.6
20260831064014 81 15 3.0 6.0 0.00 0.00 0.00 78 1013.7
20260831063509 81 23 3.0 7.0 0.00 0.00 0.00 78 1013.7
20260831063016 81 309 3.0 6.0 0.00 0.00 0.00 79 1013.7
20260831062014 80 336 1.0 3.0 0.00 0.00 0.00 79 1013.7
20260831061515 80 258 2.0 7.0 0.00 0.00 0.00 79 1013.7
20260831061015 80 317 1.0 7.0 0.00 0.00 0.00 80 1013.7
20260831060512 79 309 2.0 5.0 0.00 0.00 0.00 80 1013.7
20260831060013 79 21 1.0 5.0 0.00 0.00 0.00 81 1013.7
20260831055517 79 251 1.0 5.0 0.00 0.00 0.00 80 1013.8
20260831055008 79 286 0.0 3.0 0.00 0.00 0.00 80 1013.7
20260831054518 79 346 1.0 3.0 0.00 0.00 0.00 81 1013.7
20260831054015 78 253 1.0 3.0 0.00 0.00 0.00 82 1013.7
20260831053512 78 266 0.0 2.0 0.00 0.00 0.00 82 1013.6
20260831053015 77 295 1.0 3.0 0.00 0.00 0.00 83 1013.6
20260831052507 77 263 0.0 3.0 0.00 0.00 0.00 83 1013.6
20260831052012 77 251 1.0 3.0 0.00 0.00 0.00 83 1013.6
20260831051016 76 250 2.0 5.0 0.00 0.00 0.00 84 1013.5
20260831050509 76 249 2.0 5.0 0.00 0.00 0.00 84 1013.6
20260831050015 76 253 2.0 5.0 0.00 0.00 0.00 84 1013.5
20260831045514 76 251 2.0 6.0 0.00 0.00 0.00 84 1013.5
20260831045014 76 248 2.0 3.0 0.00 0.00 0.00 84 1013.5
20260831044511 76 247 1.0 3.0 0.00 0.00 0.00 84 1013.5
20260831044007 76 246 0.0 2.0 0.00 0.00 0.00 84 1013.5
20260831043512 76 246 0.0 3.0 0.00 0.00 0.00 84 1013.4
20260831043015 76 246 0.0 3.0 0.00 0.00 0.00 83 1013.4
20260831042512 76 246 0.0 1.0 0.00 0.00 0.00 83 1013.3
20260831042007 77 246 0.0 1.0 0.00 0.00 0.00 83 1013.3
20260831040512 77 243 0.0 3.0 0.00 0.00 0.00 83 1013.3
20260831040016 77 243 1.0 3.0 0.00 0.00 0.00 82 1013.3
20260831034013 78 278 0.0 2.0 0.00 0.00 0.00 83 1013.2
20260831033512 78 28 1.0 3.0 0.00 0.00 0.00 83 1013.2
20260831032508 78 265 1.0 5.0 0.00 0.00 0.00 82 1013.2
20260831032007 78 280 0.0 3.0 0.00 0.00 0.00 82 1013.2
20260831031009 78 273 1.0 5.0 0.00 0.00 0.00 82 1013.2
20260831030007 79 302 1.0 3.0 0.00 0.00 0.00 81 1013.2
20260831024508 79 259 2.0 3.0 0.00 0.00 0.00 81 1013.2
20260831024012 79 278 2.0 5.0 0.00 0.00 0.00 81 1013.2
20260831023507 79 269 2.0 3.0 0.00 0.00 0.00 81 1013.1
20260831023015 79 299 2.0 3.0 0.00 0.00 0.00 81 1013.1
20260831022512 79 299 2.0 3.0 0.00 0.00 0.00 80 1013.1
20260831022015 79 267 1.0 6.0 0.00 0.00 0.00 80 1013.1
20260831021509 79 302 2.0 6.0 0.00 0.00 0.00 81 1013.2
20260831021013 79 0 3.0 7.0 0.00 0.00 0.00 81 1013.2
20260831020516 79 33 4.0 8.0 0.00 0.00 0.00 82 1013.2
20260831020007 80 24 3.0 8.0 0.00 0.00 0.00 82 1013.2
20260831015009 80 336 3.0 8.0 0.00 0.00 0.00 83 1013.3
20260831014512 80 15 3.0 8.0 0.00 0.00 0.00 83 1013.2
20260831013015 80 21 2.0 7.0 0.00 0.00 0.00 83 1013.1
20260831012512 80 353 3.0 6.0 0.00 0.00 0.00 82 1013.1
20260831010508 80 344 5.0 10.0 0.00 0.00 0.00 82 1013.1
20260831005513 80 18 4.0 8.0 0.00 0.00 0.00 81 1013.1
20260831004015 79 14 5.0 9.0 0.00 0.00 0.00 78 1013.1
20260831003015 79 357 4.0 9.0 0.00 0.00 0.00 77 1013.0
20260831002506 80 290 2.0 10.0 0.00 0.00 0.00 76 1012.9
20260831002009 79 312 2.0 5.0 0.00 0.00 0.00 76 1013.0
20260831001506 79 358 4.0 7.0 0.00 0.00 0.00 76 1013.0
20260831001009 79 330 2.0 8.0 0.00 0.00 0.00 76 1013.0
20260831000507 80 2 3.0 8.0 0.00 0.00 0.00 76 1013.0
20260831000016 80 323 3.0 8.0 0.00 0.00 0.00 76 1013.0
20260830235507 80 321 3.0 8.0 0.00 0.00 0.00 76 1012.9
20260830235008 80 4 4.0 8.0 0.00 0.00 0.00 76 1012.9
20260830234508 80 297 3.0 8.0 0.00 0.00 0.00 76 1012.9
20260830234009 80 29 3.0 7.0 0.00 0.00 0.00 76 1013.0
20260830233508 80 20 3.0 6.0 0.00 0.00 0.00 76 1013.0
20260830233015 80 352 1.0 3.0 0.00 0.00 0.00 76 1012.9
20260830232508 80 12 2.0 3.0 0.00 0.00 0.00 77 1013.0
20260830232009 80 251 2.0 5.0 0.00 0.00 0.00 78 1012.9
20260830231509 80 64 2.0 6.0 0.00 0.00 0.00 79 1012.9
20260830231012 80 359 2.0 6.0 0.00 0.00 0.00 79 1012.9
20260830230514 80 307 2.0 6.0 0.00 0.00 0.00 80 1012.8
20260830230015 80 14 1.0 3.0 0.00 0.00 0.00 80 1012.9
20260830225508 80 295 1.0 5.0 0.00 0.00 0.00 80 1012.9
20260830225014 80 280 1.0 5.0 0.00 0.00 0.00 79 1013.0
20260830224507 80 338 0.0 3.0 0.00 0.00 0.00 79 1013.1
20260830224015 80 276 1.0 3.0 0.00 0.00 0.00 79 1013.1
20260830223506 80 252 1.0 3.0 0.00 0.00 0.00 78 1013.0
20260830223015 80 16 1.0 3.0 0.00 0.00 0.00 77 1013.0
20260830222508 80 14 1.0 3.0 0.00 0.00 0.00 77 1013.0
20260830221512 80 258 0.0 2.0 0.00 0.00 0.00 75 1013.0
20260830221006 80 252 0.0 3.0 0.00 0.00 0.00 74 1013.0
20260830220514 80 249 1.0 3.0 0.00 0.00 0.00 74 1012.9
20260830220015 81 251 1.0 3.0 0.00 0.00 0.00 73 1012.8
20260830215009 81 321 1.0 3.0 0.00 0.00 0.00 73 1012.8
20260830213508 81 264 0.0 2.0 0.00 0.00 0.00 73 1012.7
20260830213013 81 37 0.0 2.0 0.00 0.00 0.00 73 1012.7
20260830212507 81 38 0.0 2.0 0.00 0.00 0.00 74 1012.6
20260830212013 81 289 0.0 0.0 0.00 0.00 0.00 74 1012.6
20260830211009 82 293 0.0 0.0 0.00 0.00 0.00 74 1012.6
20260830210507 82 304 1.0 3.0 0.00 0.00 0.00 74 1012.5
20260830210015 82 336 0.0 2.0 0.00 0.00 0.00 74 1012.5
20260830205507 82 39 1.0 2.0 0.00 0.00 0.00 74 1012.6
20260830204509 81 236 0.0 1.0 0.00 0.00 0.00 76 1012.6
20260830204015 81 235 0.0 0.0 0.00 0.00 0.00 78 1012.6
20260830203506 81 236 0.0 0.0 0.00 0.00 0.00 78 1012.6
20260830203016 82 235 1.0 3.0 0.00 0.00 0.00 78 1012.6
20260830202507 82 206 0.0 3.0 0.00 0.00 0.00 78 1012.5
20260830202006 82 204 1.0 3.0 0.00 0.00 0.00 77 1012.3
20260830201508 82 196 3.0 5.0 0.00 0.00 0.00 77 1012.3
20260830201015 82 204 2.0 5.0 0.00 0.00 0.00 77 1012.3
20260830200012 82 207 1.0 3.0 0.00 0.00 0.00 76 1012.2
20260830195512 82 190 1.0 3.0 0.00 0.00 0.00 76 1012.2
20260830195015 82 190 1.0 3.0 0.00 0.00 0.00 76 1012.1
20260830193512 82 210 3.0 8.0 0.00 0.00 0.00 75 1012.3
20260830193015 83 206 5.0 8.0 0.00 0.00 0.00 75 1012.2
20260830192512 83 198 4.0 8.0 0.00 0.00 0.00 74 1012.2
20260830192008 83 204 7.0 10.0 0.00 0.00 0.00 74 1012.1
20260830191508 83 194 6.0 9.0 0.00 0.00 0.00 73 1012.1
20260830190507 83 199 5.0 8.0 0.00 0.00 0.00 72 1012.0
20260830190016 83 217 4.0 10.0 0.00 0.00 0.00 72 1011.9
20260830185512 83 203 5.0 9.0 0.00 0.00 0.00 72 1011.9
20260830185015 83 201 5.0 9.0 0.00 0.00 0.00 71 1011.9
20260830184506 83 201 6.0 12.0 0.00 0.00 0.00 71 1011.9
20260830183015 84 203 4.0 8.0 0.00 0.00 0.00 68 1011.8
20260830182509 84 198 2.0 7.0 0.00 0.00 0.00 67 1011.7
20260830182007 84 250 1.0 6.0 0.00 0.00 0.00 67 1011.6
20260830181009 84 200 5.0 8.0 0.00 0.00 0.00 66 1011.5
20260830180509 84 203 5.0 9.0 0.00 0.00 0.00 65 1011.4
20260830175506 85 218 5.0 10.0 0.00 0.00 0.00 64 1011.3
20260830175015 85 204 6.0 12.0 0.00 0.00 0.00 63 1011.1
20260830174506 85 209 5.0 12.0 0.00 0.00 0.00 61 1011.0
20260830174007 85 200 6.0 12.0 0.00 0.00 0.00 61 1011.1
20260830173506 85 212 6.0 12.0 0.00 0.00 0.00 59 1011.2
20260830173007 86 190 7.0 12.0 0.00 0.00 0.00 58 1011.2
20260830172012 86 207 6.0 10.0 0.00 0.00 0.00 55 1011.0
20260830171012 87 207 7.0 12.0 0.00 0.00 0.00 53 1010.9
20260830170514 87 191 9.0 15.0 0.00 0.00 0.00 52 1010.8
20260830165015 88 195 7.0 13.0 0.00 0.00 0.00 49 1010.7
20260830164506 88 201 6.0 10.0 0.00 0.00 0.00 47 1010.7
20260830164007 88 191 5.0 13.0 0.00 0.00 0.00 46 1010.7
20260830163506 89 194 7.0 13.0 0.00 0.00 0.00 45 1010.7
20260830162506 89 186 7.0 15.0 0.00 0.00 0.00 44 1010.7
20260830162026 89 205 7.0 14.0 0.00 0.00 0.00 43 1010.7
20260830161506 89 217 9.0 18.0 0.00 0.00 0.00 42 1010.8
20260830161006 90 208 9.0 14.0 0.00 0.00 0.00 41 1010.7
20260830160508 90 184 7.0 14.0 0.00 0.00 0.00 40 1010.8
20260830160006 91 187 6.0 12.0 0.00 0.00 0.00 40 1010.8
20260830155508 91 177 6.0 15.0 0.00 0.00 0.00 39 1010.9
20260830155012 91 208 9.0 17.0 0.00 0.00 0.00 38 1010.9
20260830154008 92 210 7.0 17.0 0.00 0.00 0.00 36 1011.0
20260830153510 92 175 9.0 18.0 0.00 0.00 0.00 35 1010.9
20260830153013 93 192 9.0 15.0 0.00 0.00 0.00 35 1011.0
20260830152509 93 192 8.0 15.0 0.00 0.00 0.00 34 1011.0
20260830152014 94 191 9.0 17.0 0.00 0.00 0.00 32 1011.0
20260830151509 94 185 8.0 16.0 0.00 0.00 0.00 31 1011.0
20260830151008 95 187 7.0 13.0 0.00 0.00 0.00 30 1011.0
20260830150508 95 213 9.0 17.0 0.00 0.00 0.00 30 1011.1
20260830150007 95 191 7.0 16.0 0.00 0.00 0.00 31 1011.1
20260830145512 95 194 6.0 15.0 0.00 0.00 0.00 30 1011.1
20260830144508 96 175 8.0 18.0 0.00 0.00 0.00 29 1011.1
20260830144012 96 171 7.0 18.0 0.00 0.00 0.00 29 1011.2
20260830143508 96 175 8.0 15.0 0.00 0.00 0.00 28 1011.2
20260830143015 97 184 9.0 17.0 0.00 0.00 0.00 28 1011.3
20260830142512 97 172 9.0 13.0 0.00 0.00 0.00 28 1011.2
20260830142007 97 182 8.0 13.0 0.00 0.00 0.00 28 1011.3
20260830141506 98 204 9.0 14.0 0.00 0.00 0.00 27 1011.3
20260830140512 98 168 7.0 14.0 0.00 0.00 0.00 28 1011.3
20260830135508 98 185 8.0 16.0 0.00 0.00 0.00 27 1011.5
20260830134508 98 203 9.0 17.0 0.00 0.00 0.00 27 1011.5
20260830134015 98 172 8.0 13.0 0.00 0.00 0.00 27 1011.6
20260830133506 99 181 9.0 16.0 0.00 0.00 0.00 26 1011.7
20260830133008 99 161 6.0 15.0 0.00 0.00 0.00 26 1011.7
20260830132507 98 178 6.0 12.0 0.00 0.00 0.00 26 1011.8
20260830132009 99 196 9.0 14.0 0.00 0.00 0.00 26 1012.0
20260830131506 99 179 6.0 14.0 0.00 0.00 0.00 25 1012.0
20260830131014 99 165 7.0 17.0 0.00 0.00 0.00 26 1012.0
20260830130506 99 167 5.0 14.0 0.00 0.00 0.00 25 1012.1
20260830130012 100 174 6.0 14.0 0.00 0.00 0.00 25 1012.2
20260830125508 100 165 6.0 12.0 0.00 0.00 0.00 24 1012.2
20260830125014 100 183 6.0 14.0 0.00 0.00 0.00 24 1012.2
20260830124008 100 176 7.0 13.0 0.00 0.00 0.00 23 1012.4
20260830123508 100 178 5.0 12.0 0.00 0.00 0.00 23 1012.3
20260830123014 99 183 8.0 13.0 0.00 0.00 0.00 23 1012.5
20260830122008 101 196 5.0 12.0 0.00 0.00 0.00 23 1012.4
20260830121007 101 188 5.0 13.0 0.00 0.00 0.00 22 1012.5
20260830120508 100 186 6.0 12.0 0.00 0.00 0.00 22 1012.7
20260830120007 100 163 7.0 12.0 0.00 0.00 0.00 23 1012.7
20260830115016 99 184 7.0 12.0 0.00 0.00 0.00 22 1012.8
20260830114506 99 180 9.0 16.0 0.00 0.00 0.00 22 1012.8
20260830114006 100 183 8.0 14.0 0.00 0.00 0.00 21 1012.8
20260830113012 100 185 6.0 12.0 0.00 0.00 0.00 21 1012.9